Location: Unspecified
(0.0000°N, 0.0000°E)
Time: 20:54:03
(UTC+00:00)

S-56A Canister/Altair - Pass Details

Date: 23 April 2019
Orbit: 633 x 2499 km, 38.9° (Epoch: 24 May)

Event Time Altitude Azimuth Distance (km) Brightness Sun altitude
Rises 19:00:50 0° 308° (NW) 3,839 12.4 -15.2°
Reaches altitude 10° 19:03:55 10° 306° (NW) 2,634 11.3 -16.0°
Maximum altitude 19:09:49 72° 222° (SW) 773 7.5 -17.4°
Enters shadow 19:12:26 26° 142° (SE) 1,319 8.3 -18.1°
